User: anonymous   Login
Location: Slidell
(30.2789°N, 89.7378°W)
Time: 10:22:50
(UTC-06:00)
Language:

Cosmos 2360 Rocket - Orbit

View from above orbital plane
View from above orbital plane
View from above satellite
View from above satellite

Ground track
Ground track

The orbit data is extracted from the following two-line orbital elements,

1 25407U 98045B   14324.86573323 -.00000213  00000-0 -84051-4 0  6183
2 25407 071.0117 215.2706 0008607 214.6055 214.2077 14.15683750843248
Epoch (UTC): 20 November 2014 20:46:39
Eccentricity: 0.0008607
inclination: 71.0117°
perigee height: 834 km
apogee height: 846 km
right ascension of ascending node: 215.2706°
argument of perigee: 214.6055°
revolutions per day: 14.15683750
mean anomaly at epoch: 214.2077°
orbit number at epoch: 84324

The dashed part of the orbit path shows where the satellite is in the earth's shadow,  

DLR